Location: Unspecified
(42.0334°N, 93.6656°W)
Time: 13:18:05
(UTC-06:00)

Amateur Radio Satellites - All Passes

Search period start: 01 March 2015 12:48
Search period end: 02 March 2015 12:48
Location: Unspecified, 42.0334°N, 93.6656°W

Satellite Date Start Highest point End Downlink Frequencies (MHz)
Time Altitude Azimuth
ITAMSAT 1 01 Mar 13:04:50 13:09:37 39° 69° (ENE) 13:14:29 435.822/435.867
ISS 01 Mar 13:08:09 13:10:08 15° 2° (N) 13:12:07 145.825
Oscar 19 01 Mar 13:09:28 13:14:36 68° 259° (W) 13:19:44 437.125/150
SWISSCUBE 01 Mar 13:11:04 13:15:17 30° 95° (E) 13:19:32 437.505
BEESAT 01 Mar 13:19:54 13:24:15 34° 96° (E) 13:28:36 436.000
AO-7 01 Mar 13:36:45 13:42:40 23° 53° (NE) 13:48:50 29.400- 29.500
ITUPSAT 1 01 Mar 13:46:03 13:50:50 61° 101° (E) 13:55:37 437.325
KKS-1 01 Mar 13:55:56 13:58:21 15° 90° (E) 14:00:57 437.445
STARS 01 Mar 14:06:22 14:07:54 12° 88° (E) 14:09:41 437.465
SPROUT 01 Mar 14:07:30 14:09:04 12° 297° (WNW) 14:10:24 437.525
Gurwin Techsat 1B 01 Mar 14:07:35 14:12:54 78° 257° (WSW) 14:18:16 435.225
JAS-2 01 Mar 14:23:49 14:27:04 16° 57° (ENE) 14:30:46 435.910
ISS 01 Mar 14:44:29 14:47:20 28° 22° (NNE) 14:50:12 145.825
ITAMSAT 1 01 Mar 14:44:51 14:49:15 27° 266° (W) 14:53:36 435.822/435.867
SWISSCUBE 01 Mar 14:48:55 14:53:08 30° 292° (WNW) 14:57:16 437.505
HORYU 2 01 Mar 14:55:42 15:00:09 89° 261° (W) 15:04:37 437.375
YUBILEINY 01 Mar 14:56:58 15:02:53 22° 80° (E) 15:09:12 435.215
BEESAT 01 Mar 14:57:56 15:02:00 27° 293° (WNW) 15:05:57 436.000
ITUPSAT 1 01 Mar 15:25:16 15:28:18 16° 297° (WNW) 15:31:10 437.325
AO-7 01 Mar 15:26:11 15:34:33 89° 252° (WSW) 15:42:57 29.400- 29.500
KKS-1 01 Mar 15:31:03 15:35:24 52° 287° (WNW) 15:39:41 437.445
STARS 01 Mar 15:40:32 15:44:54 63° 285° (WNW) 15:49:13 437.465
JAS-2 01 Mar 16:05:57 16:11:22 78° 258° (WSW) 16:17:28 435.910
ISS 01 Mar 16:20:46 16:23:54 47° 220° (SW) 16:27:01 145.825
Cubesat XI-IV 01 Mar 16:22:46 16:26:16 19° 62° (ENE) 16:29:57 437.490
CUTE-I 01 Mar 16:31:39 16:35:34 22° 64° (ENE) 16:39:39 437.470
MOZHAYETS 4 01 Mar 16:32:44 16:36:59 35° 96° (E) 16:41:16
M-CUBED/EXP-1 PRIME 01 Mar 16:38:58 16:43:06 52° 105° (ESE) 16:47:32 437.505
AUBIESAT-1 01 Mar 16:42:05 16:46:12 50° 105° (ESE) 16:50:38 437.475
YUBILEINY 01 Mar 16:50:03 16:58:48 79° 279° (W) 17:07:39 435.215
BEESAT 3 01 Mar 16:55:13 16:58:23 22° 113° (ESE) 17:01:39 437.485
AIST 2 01 Mar 17:11:55 17:12:54 11° 109° (ESE) 17:14:09 435.215
BEESAT 2 01 Mar 17:18:40 17:22:22 34° 116° (ESE) 17:26:10 435.950
VERMONT LUNAR 01 Mar 17:19:47 17:21:46 15° 150° (SSE) 17:23:50 437.305
AO-7 01 Mar 17:23:03 17:28:37 18° 272° (W) 17:33:43 29.400- 29.500
AIST 1 01 Mar 17:50:04 17:53:53 28° 74° (ENE) 17:57:43
Cubesat XI-IV 01 Mar 18:00:35 18:05:54 64° 259° (WSW) 18:11:17 437.490
STRAND 1 01 Mar 18:04:57 18:08:02 16° 89° (E) 18:11:20 437.568
PRISM 01 Mar 18:07:51 18:11:24 26° 95° (E) 18:14:59 437.425
CUTE-I 01 Mar 18:10:04 18:15:18 54° 260° (W) 18:20:35 437.470
MOZHAYETS 4 01 Mar 18:10:19 18:14:05 24° 292° (WNW) 18:17:44
HO-68 01 Mar 18:11:14 18:14:45 15° 52° (NE) 18:18:37 435.675
M-CUBED/EXP-1 PRIME 01 Mar 18:15:01 18:17:46 17° 298° (WNW) 18:20:30 437.505
AUBIESAT-1 01 Mar 18:17:59 18:20:49 17° 298° (WNW) 18:23:39 437.475
CUBESAT XI-V 01 Mar 18:28:01 18:32:32 44° 98° (E) 18:37:02 437.345
BEESAT 3 01 Mar 18:32:29 18:36:18 36° 310° (NW) 18:40:10 437.485
AIST 2 01 Mar 18:46:43 18:50:58 76° 303° (WNW) 18:55:18 435.215
PHONESAT 2.4 01 Mar 18:51:20 18:54:31 29° 157° (SSE) 18:57:44 2401.200-2431.200
YUBILEINY 01 Mar 18:51:55 18:57:26 17° 303° (WNW) 19:02:30 435.215
VERMONT LUNAR 01 Mar 18:55:52 18:59:14 45° 165° (SSE) 19:02:35 437.305
BEESAT 2 01 Mar 18:57:06 19:00:37 26° 314° (NW) 19:04:09 435.950
BRITE-PL 01 Mar 19:05:48 19:10:42 32° 69° (ENE) 19:15:30 437.365/2234.400
O/OREOS (USA 219) 01 Mar 19:17:07 19:21:42 63° 65° (ENE) 19:26:14 437.305
GOMX 1 01 Mar 19:17:11 19:21:36 27° 68° (ENE) 19:25:57 467.674
AAUSAT CUBESAT 2 01 Mar 19:26:03 19:28:15 15° 65° (ENE) 19:30:36 437.432
COMPASS 1 01 Mar 19:27:12 19:29:50 17° 67° (ENE) 19:32:37 437.405
AIST 1 01 Mar 19:27:50 19:31:29 25° 270° (W) 19:35:02
STRAND 1 01 Mar 19:42:39 19:47:45 61° 288° (WNW) 19:52:48 437.568
PRISM 01 Mar 19:43:15 19:46:53 27° 291° (WNW) 19:50:26 437.425
SEEDS 01 Mar 19:51:29 19:55:19 37° 72° (ENE) 19:59:12 437.485
CANX-2 01 Mar 19:52:36 19:56:41 50° 73° (ENE) 20:00:47 2200.000
HO-68 01 Mar 19:54:18 20:01:23 72° 71° (ENE) 20:08:33 435.675
DOVE 4 01 Mar 19:57:03 20:01:54 43° 72° (ENE) 20:06:35 437.250
CUBESAT XI-V 01 Mar 20:06:12 20:09:42 20° 294° (WNW) 20:13:05 437.345
UWE-3 01 Mar 20:09:24 20:11:38 14° 65° (ENE) 20:14:01 435.000/436.395/437.385
CUTE 1.7 + AOD 2 01 Mar 20:11:15 20:15:27 75° 76° (ENE) 20:19:40 437.475
CINEMA 3 01 Mar 20:14:07 20:18:25 34° 71° (ENE) 20:22:35 145.822/145.860
PCSat 01 Mar 20:22:27 20:27:15 34° 111° (ESE) 20:32:09 145.827
AIST 2 01 Mar 20:28:30 20:30:23 12° 324° (NW) 20:32:09 435.215
PHONESAT 2.4 01 Mar 20:29:06 20:32:43 65° 174° (S) 20:36:20 2401.200-2431.200
VERMONT LUNAR 01 Mar 20:33:31 20:37:00 70° 182° (S) 20:40:29 437.305
DELFI C3 01 Mar 20:38:57 20:42:33 33° 71° (ENE) 20:46:13 145.870
CUBEBUG 2 01 Mar 20:42:25 20:46:33 36° 71° (ENE) 20:50:36 437.445
Oscar 11 01 Mar 20:43:33 20:47:41 49° 73° (ENE) 20:51:53 145.826/435.025
BRITE-PL 01 Mar 20:43:51 20:49:06 37° 264° (W) 20:54:10 437.365/2234.400
GOMX 1 01 Mar 20:54:29 20:59:34 40° 263° (W) 21:04:28 467.674
O/OREOS (USA 219) 01 Mar 20:58:26 21:00:38 13° 261° (W) 21:02:34 437.305
AAUSAT CUBESAT 2 01 Mar 20:59:30 21:03:32 50° 261° (W) 21:07:36 437.432
COMPASS 1 01 Mar 21:01:20 21:05:17 42° 262° (W) 21:09:15 437.405
GONETS M04 01 Mar 21:03:58 21:11:10 32° 85° (E) 21:18:34
AISAT 01 Mar 21:05:15 21:08:23 19° 66° (ENE) 21:11:39 437.250
DX 1 01 Mar 21:05:50 21:10:01 44° 71° (ENE) 21:14:13 434.975-435.025
VELOX 1 01 Mar 21:14:54 21:18:24 23° 67° (ENE) 21:21:59 145.980
CUBEBUG 1 01 Mar 21:15:30 21:15:57 10° 61° (ENE) 21:16:38 437.445
RS-15 01 Mar 21:24:22 21:28:02 13° 98° (E) 21:32:43 29.354- 29.394
FUNcube-1 01 Mar 21:25:47 21:30:10 72° 76° (ENE) 21:34:28 145.935
ZACube-1 01 Mar 21:26:36 21:31:00 75° 77° (ENE) 21:35:19 437.345
ESTCUBE 1 01 Mar 21:27:20 21:29:56 16° 64° (ENE) 21:32:44 437.505/2401.250
SEEDS 01 Mar 21:28:20 21:31:19 18° 268° (W) 21:34:13 437.485
CANX-2 01 Mar 21:30:41 21:32:59 14° 271° (W) 21:35:07 2200.000
DOVE 4 01 Mar 21:35:43 21:39:50 23° 267° (W) 21:43:42 437.250
UKube-1 01 Mar 21:36:35 21:40:56 89° 247° (WSW) 21:45:20 .
HUMSAT D 01 Mar 21:38:37 21:42:42 52° 74° (ENE) 21:46:46 437.325/437.525
UNISAT 6 01 Mar 21:40:55 21:41:51 11° 88° (E) 21:43:03 437.425
UWE-3 01 Mar 21:43:23 21:47:48 59° 260° (W) 21:52:06 435.000/436.395/437.385
HO-68 01 Mar 21:44:30 21:49:52 21° 270° (W) 21:54:58 435.675
50 SAT 01 Mar 21:47:03 21:50:50 44° 73° (ENE) 21:54:39 437.505
CINEMA 3 01 Mar 21:51:39 21:55:40 25° 266° (W) 21:59:30 145.822/145.860
TIGRISAT 01 Mar 22:04:43 22:07:49 20° 92° (E) 22:11:03 435.000
PCSat 01 Mar 22:05:39 22:10:39 37° 309° (NW) 22:15:40 145.827
PHONESAT 2.4 01 Mar 22:07:29 22:11:05 59° 190° (S) 22:14:39 2401.200-2431.200
VERMONT LUNAR 01 Mar 22:11:28 22:14:45 39° 198° (SSW) 22:18:01 437.305
QB50P1 01 Mar 22:12:34 22:14:34 13° 89° (E) 22:16:46 145.935-145.965
DELFI C3 01 Mar 22:14:55 22:17:54 19° 268° (W) 22:20:46 145.870
QB50P2 01 Mar 22:15:44 22:18:05 15° 90° (E) 22:20:37 145.880/145.840
ANTELSAT 01 Mar 22:17:16 22:20:58 28° 95° (E) 22:24:44 437.575/2403.000
CUBEBUG 2 01 Mar 22:19:51 22:23:23 21° 267° (W) 22:26:44 437.445
Oscar 11 01 Mar 22:21:43 22:24:14 15° 270° (W) 22:26:34 145.826/435.025
BUGSAT 1 01 Mar 22:28:18 22:30:32 15° 90° (E) 22:32:56 437.445
DUCHIFAT 1 01 Mar 22:31:07 22:34:19 21° 93° (E) 22:37:35 145.980
AISAT 01 Mar 22:40:25 22:44:43 43° 261° (W) 22:49:03 437.250
DX 1 01 Mar 22:43:33 22:46:32 17° 269° (W) 22:49:22 434.975-435.025
CUBEBUG 1 01 Mar 22:47:15 22:51:42 88° 259° (WSW) 22:56:12 437.445
POLYITAN 1 01 Mar 22:49:38 22:53:30 35° 97° (E) 22:57:23 437.675
POPSAT HIP 1 01 Mar 22:50:40 22:54:33 35° 97° (E) 22:58:26 437.405
VELOX 1 01 Mar 22:50:41 22:54:48 35° 263° (W) 22:58:56 145.980
GONETS M04 01 Mar 22:59:05 23:07:36 57° 284° (WNW) 23:16:08
ESTCUBE 1 01 Mar 23:01:58 23:06:25 56° 260° (W) 23:10:55 437.505/2401.250
FUNcube-1 01 Mar 23:06:24 23:07:04 10° 273° (W) 23:07:25 145.935
DANDE 01 Mar 23:11:07 23:15:52 21° 93° (E) 23:20:04 436.750
NANOSAT C BR1 01 Mar 23:14:03 23:18:16 66° 101° (E) 23:22:27 145.865
UNISAT 6 01 Mar 23:14:56 23:19:12 66° 285° (WNW) 23:23:29 437.425
HUMSAT D 01 Mar 23:16:42 23:18:51 13° 271° (W) 23:20:48 437.325/437.525
SPROUT 01 Mar 23:23:35 23:27:51 57° 74° (ENE) 23:32:07 437.525
50 SAT 01 Mar 23:23:55 23:26:08 14° 270° (W) 23:28:12 437.505
RS-15 01 Mar 23:27:48 23:38:29 67° 117° (ESE) 23:49:24 29.354- 29.394
TISAT 1 01 Mar 23:31:04 23:35:18 64° 75° (ENE) 23:39:34 437.305
TIGRISAT 01 Mar 23:40:49 23:44:44 35° 289° (WNW) 23:48:39 435.000
CUSAT 1 01 Mar 23:45:25 23:51:36 47° 97° (E) 23:56:21 437.405
PHONESAT 2.4 01 Mar 23:46:17 23:49:11 23° 206° (SSW) 23:52:03 2401.200-2431.200
QB50P1 01 Mar 23:46:44 23:50:51 52° 287° (WNW) 23:54:57 145.935-145.965
QB50P2 01 Mar 23:50:15 23:54:21 47° 287° (WNW) 23:58:23 145.880/145.840
VERMONT LUNAR 01 Mar 23:50:54 23:52:08 11° 212° (SSW) 23:53:15 437.305
ANTELSAT 01 Mar 23:54:08 23:57:43 26° 291° (WNW) 00:01:16 437.575/2403.000
BUGSAT 1 02 Mar 00:02:21 00:06:23 46° 287° (WNW) 00:10:18 437.445
DUCHIFAT 1 02 Mar 00:06:28 00:10:16 32° 290° (WNW) 00:14:00 145.980
SWISSCUBE 02 Mar 00:18:07 00:22:27 36° 70° (ENE) 00:26:52 437.505
POLYITAN 1 02 Mar 00:26:03 00:29:15 21° 293° (WNW) 00:32:20 437.675
BEESAT 02 Mar 00:26:49 00:31:15 41° 70° (ENE) 00:35:46 436.000
POPSAT HIP 1 02 Mar 00:27:05 00:30:16 20° 293° (WNW) 00:33:20 437.405
NANOSAT C BR1 02 Mar 00:51:56 00:53:39 12° 297° (WNW) 00:55:11 145.865
DANDE 02 Mar 00:52:15 00:59:10 59° 281° (WNW) 01:04:22 436.750
ITUPSAT 1 02 Mar 00:53:13 00:57:58 74° 76° (ENE) 01:02:48 437.325
KKS-1 02 Mar 00:55:00 00:57:35 16° 64° (ENE) 01:00:21 437.445
SPROUT 02 Mar 01:02:16 01:04:23 13° 271° (W) 01:06:17 437.525
STARS 02 Mar 01:04:18 01:06:09 13° 63° (ENE) 01:08:12 437.465
GONETS M04 02 Mar 01:04:45 01:07:02 11° 309° (NW) 01:08:38
YUBILEINY 02 Mar 01:08:02 01:08:51 10° 49° (NE) 01:10:24 435.215
TISAT 1 02 Mar 01:10:08 01:11:38 11° 272° (W) 01:12:53 437.305
SO-50 02 Mar 01:10:09 01:13:45 24° 112° (ESE) 01:17:32 436.795
BEESAT 3 02 Mar 01:13:43 01:16:44 19° 43° (NE) 01:19:48 437.485
ITAMSAT 1 02 Mar 01:19:02 01:21:12 13° 87° (E) 01:23:41 435.822/435.867
Oscar 19 02 Mar 01:20:43 01:25:33 41° 98° (E) 01:30:24 437.125/150
CUSAT 1 02 Mar 01:29:38 01:34:29 23° 287° (WNW) 01:38:20 437.405
AIST 2 02 Mar 01:31:22 01:33:13 13° 36° (NE) 01:35:11 435.215
BEESAT 2 02 Mar 01:37:54 01:41:28 27° 47° (NE) 01:45:01 435.950
RS-15 02 Mar 01:41:25 01:51:39 42° 322° (NW) 02:01:58 29.354- 29.394
SWISSCUBE 02 Mar 01:56:31 02:00:27 24° 267° (W) 02:04:18 437.505
BEESAT 02 Mar 02:05:36 02:09:18 22° 267° (W) 02:12:56 436.000
Gurwin Techsat 1B 02 Mar 02:23:34 02:28:34 41° 97° (E) 02:33:35 435.225
KKS-1 02 Mar 02:29:27 02:33:51 55° 260° (W) 02:38:17 437.445
ITUPSAT 1 02 Mar 02:34:36 02:36:32 12° 273° (W) 02:38:10 437.325
STARS 02 Mar 02:37:42 02:42:08 69° 258° (WSW) 02:46:34 437.465
HORYU 2 02 Mar 02:47:50 02:50:40 17° 91° (E) 02:53:39 437.375
SO-50 02 Mar 02:49:39 02:54:04 43° 310° (NW) 02:58:38 436.795
BEESAT 3 02 Mar 02:51:07 02:55:08 50° 242° (WSW) 02:59:04 437.485
ITAMSAT 1 02 Mar 02:56:11 03:01:26 77° 286° (WNW) 03:06:38 435.822/435.867
YUBILEINY 02 Mar 02:59:48 03:08:25 54° 75° (ENE) 03:17:02 435.215
Oscar 19 02 Mar 03:00:32 03:04:43 25° 294° (WNW) 03:08:48 437.125/150
AIST 2 02 Mar 03:08:18 03:12:36 80° 56° (NE) 03:16:49 435.215
JAS-2 02 Mar 03:14:38 03:19:21 18° 87° (E) 03:24:37 435.910
BEESAT 2 02 Mar 03:15:56 03:19:41 32° 245° (WSW) 03:23:20 435.950
AO-7 02 Mar 03:28:01 03:34:57 30° 94° (E) 03:42:04 29.400- 29.500
M-CUBED/EXP-1 PRIME 02 Mar 03:29:22 03:32:39 71° 71° (ENE) 03:36:04 437.505
AUBIESAT-1 02 Mar 03:32:01 03:35:17 67° 71° (ENE) 03:38:42 437.475
MOZHAYETS 4 02 Mar 03:35:14 03:39:20 35° 70° (ENE) 03:43:31
RS-15 02 Mar 03:59:58 04:08:08 22° 355° (N) 04:16:26 29.354- 29.394
Gurwin Techsat 1B 02 Mar 04:03:56 04:08:23 27° 294° (WNW) 04:12:43 435.225
HORYU 2 02 Mar 04:23:22 04:27:38 46° 288° (WNW) 04:31:52 437.375
ITAMSAT 1 02 Mar 04:38:43 04:40:09 11° 302° (WNW) 04:41:18 435.822/435.867
AIST 2 02 Mar 04:50:16 04:50:38 10° 252° (WSW) 04:50:44 435.215
YUBILEINY 02 Mar 04:57:13 05:04:57 34° 275° (W) 05:12:28 435.215
JAS-2 02 Mar 04:57:49 05:05:15 90° 286° (WNW) 05:13:09 435.910
PRISM 02 Mar 04:59:12 05:02:18 21° 67° (ENE) 05:05:31 437.425
PCSat 02 Mar 05:09:34 05:14:24 32° 49° (NE) 05:19:16 145.827
MOZHAYETS 4 02 Mar 05:13:01 05:16:41 23° 267° (W) 05:20:17
AO-7 02 Mar 05:20:09 05:28:19 62° 293° (WNW) 05:36:25 29.400- 29.500
STRAND 1 02 Mar 05:20:57 05:25:04 26° 66° (ENE) 05:29:20 437.568
CUBESAT XI-V 02 Mar 05:31:44 05:36:11 45° 72° (ENE) 05:40:42 437.345
RS-15 02 Mar 06:15:40 06:25:20 32° 29° (NNE) 06:35:32 29.354- 29.394
Cubesat XI-IV 02 Mar 06:17:31 06:22:45 50° 99° (E) 06:27:57 437.490
AIST 1 02 Mar 06:21:14 06:23:54 17° 87° (E) 06:26:44
CUTE-I 02 Mar 06:26:39 06:31:58 60° 101° (E) 06:37:15 437.470
PRISM 02 Mar 06:33:52 06:37:38 33° 263° (W) 06:41:25 437.425
JAS-2 02 Mar 06:44:22 06:49:34 21° 300° (WNW) 06:54:43 435.910
PCSat 02 Mar 06:52:52 06:57:55 40° 248° (WSW) 07:02:54 145.827
STRAND 1 02 Mar 06:59:16 07:04:06 40° 262° (W) 07:08:58 437.568
CUBESAT XI-V 02 Mar 07:10:32 07:13:55 19° 269° (W) 07:17:11 437.345
GONETS M04 02 Mar 07:13:47 07:18:25 16° 56° (NE) 07:23:36
AO-7 02 Mar 07:15:16 07:19:39 15° 314° (NW) 07:23:39 29.400- 29.500
HO-68 02 Mar 07:25:07 07:27:02 11° 84° (E) 07:29:31 435.675
AIST 1 02 Mar 07:57:06 08:01:15 42° 283° (WNW) 08:05:26
CUTE 1.7 + AOD 2 02 Mar 07:58:05 07:59:49 13° 88° (E) 08:01:47 437.475
Cubesat XI-IV 02 Mar 07:58:21 08:02:33 23° 296° (WNW) 08:06:36 437.490
CUTE-I 02 Mar 08:07:49 08:11:38 20° 297° (WNW) 08:15:18 437.470
RS-15 02 Mar 08:28:13 08:39:43 84° 56° (NE) 08:51:44 29.354- 29.394
UNISAT 6 02 Mar 08:40:53 08:42:21 12° 63° (ENE) 08:44:02 437.425
AAUSAT CUBESAT 2 02 Mar 08:42:46 08:46:07 24° 94° (E) 08:49:34 437.432
COMPASS 1 02 Mar 08:44:42 08:48:21 28° 95° (E) 08:52:02 437.405
BRITE-PL 02 Mar 08:48:46 08:53:24 77° 102° (ESE) 08:57:41 437.365/2234.400
GOMX 1 02 Mar 08:56:24 09:00:46 60° 100° (E) 09:04:55 467.674
ISS 02 Mar 09:00:10 09:03:12 38° 138° (SE) 09:06:14 145.825
TIGRISAT 02 Mar 09:04:24 09:07:32 20° 67° (ENE) 09:10:46 435.000
QB50P1 02 Mar 09:06:50 09:08:28 12° 63° (ENE) 09:10:18 145.935-145.965
GONETS M04 02 Mar 09:08:24 09:17:10 75° 80° (E) 09:25:59
HO-68 02 Mar 09:08:59 09:16:11 72° 104° (ESE) 09:23:22 435.675
QB50P2 02 Mar 09:10:04 09:12:05 14° 64° (ENE) 09:14:18 145.880/145.840
SEEDS 02 Mar 09:10:52 09:15:06 70° 101° (E) 09:19:19 437.485
CANX-2 02 Mar 09:13:14 09:17:31 84° 284° (WNW) 09:21:46 2200.000
FUNcube-1 02 Mar 09:15:56 09:17:31 12° 89° (E) 09:19:21 145.935
ZACube-1 02 Mar 09:16:49 09:18:36 13° 89° (E) 09:20:37 437.345
ANTELSAT 02 Mar 09:17:05 09:20:46 27° 69° (ENE) 09:24:29 437.575/2403.000
BUGSAT 1 02 Mar 09:19:48 09:21:35 13° 64° (ENE) 09:23:34 437.445
DUCHIFAT 1 02 Mar 09:24:38 09:27:32 19° 66° (ENE) 09:30:34 145.980
UKube-1 02 Mar 09:25:23 09:27:46 15° 90° (E) 09:30:21 .
O/OREOS (USA 219) 02 Mar 09:29:30 09:34:01 69° 110° (ESE) 09:38:36 437.305
CUTE 1.7 + AOD 2 02 Mar 09:32:00 09:36:12 57° 285° (WNW) 09:40:21 437.475
UWE-3 02 Mar 09:33:32 09:36:55 24° 94° (E) 09:40:22 435.000/436.395/437.385
DOVE 4 02 Mar 09:33:45 09:38:04 77° 284° (WNW) 09:42:12 437.250
SO-50 02 Mar 09:40:21 09:44:38 29° 45° (NE) 09:48:58 436.795
POLYITAN 1 02 Mar 09:43:21 09:47:03 29° 70° (ENE) 09:50:49 437.675
POPSAT HIP 1 02 Mar 09:44:07 09:47:50 29° 70° (ENE) 09:51:35 437.405
CINEMA 3 02 Mar 09:45:29 09:49:41 75° 101° (E) 09:53:50 145.822/145.860
DELFI C3 02 Mar 09:53:09 09:57:10 55° 100° (E) 10:01:11 145.870
Oscar 11 02 Mar 10:06:21 10:10:42 84° 285° (WNW) 10:15:02 145.826/435.025
NANOSAT C BR1 02 Mar 10:07:00 10:11:09 52° 74° (ENE) 10:15:20 145.865
CUBEBUG 2 02 Mar 10:09:27 10:13:37 77° 102° (ESE) 10:17:46 437.445
UNISAT 6 02 Mar 10:14:16 10:18:41 72° 258° (WSW) 10:23:01 437.425
AAUSAT CUBESAT 2 02 Mar 10:18:09 10:21:48 29° 290° (WNW) 10:25:25 437.432
COMPASS 1 02 Mar 10:20:32 10:23:59 24° 291° (WNW) 10:27:22 437.405
CUSAT 1 02 Mar 10:25:41 10:27:08 14° 70° (ENE) 10:28:40 437.405
BRITE-PL 02 Mar 10:29:42 10:31:15 11° 300° (WNW) 10:32:33 437.365/2234.400
DX 1 02 Mar 10:29:46 10:34:09 80° 103° (ESE) 10:38:30 434.975-435.025
AISAT 02 Mar 10:31:04 10:35:07 33° 97° (E) 10:39:08 437.250
GOMX 1 02 Mar 10:36:16 10:38:25 13° 298° (WNW) 10:40:21 467.674
ISS 02 Mar 10:36:45 10:39:41 30° 336° (NNW) 10:42:36 145.825
CUBEBUG 1 02 Mar 10:37:08 10:39:56 17° 91° (E) 10:42:52 437.445
QB50P1 02 Mar 10:39:37 10:43:53 67° 259° (WSW) 10:48:09 145.935-145.965
TIGRISAT 02 Mar 10:39:58 10:44:07 38° 262° (W) 10:48:10 435.000
VELOX 1 02 Mar 10:40:42 10:44:55 41° 98° (E) 10:49:08 145.980
RS-15 02 Mar 10:41:56 10:51:09 27° 255° (WSW) 11:00:09 29.354- 29.394
QB50P2 02 Mar 10:43:20 10:47:34 60° 259° (W) 10:51:49 145.880/145.840
SEEDS 02 Mar 10:48:57 10:50:26 11° 296° (WNW) 10:51:42 437.485
FUNcube-1 02 Mar 10:50:15 10:54:19 54° 286° (WNW) 10:58:23 145.935
ZACube-1 02 Mar 10:51:20 10:55:24 52° 286° (WNW) 10:59:26 437.345
BUGSAT 1 02 Mar 10:52:22 10:56:37 65° 259° (W) 11:00:53 437.445
ANTELSAT 02 Mar 10:53:46 10:57:33 27° 265° (W) 11:01:15 437.575/2403.000
ESTCUBE 1 02 Mar 10:54:39 10:58:38 29° 95° (E) 11:02:37 437.505/2401.250
HO-68 02 Mar 10:57:46 11:03:20 24° 302° (WNW) 11:08:43 435.675
HUMSAT D 02 Mar 10:58:05 11:02:12 85° 284° (WNW) 11:06:20 437.325/437.525
DUCHIFAT 1 02 Mar 10:59:04 11:03:08 41° 262° (W) 11:07:12 145.980
50 SAT 02 Mar 10:59:54 11:03:51 71° 101° (ESE) 11:07:48 437.505
UKube-1 02 Mar 11:00:04 11:04:18 50° 288° (WNW) 11:08:29 .
GONETS M04 02 Mar 11:06:41 11:13:14 23° 278° (W) 11:19:26
UWE-3 02 Mar 11:09:55 11:13:29 27° 290° (WNW) 11:16:58 435.000/436.395/437.385
O/OREOS (USA 219) 02 Mar 11:11:23 11:14:02 15° 310° (NW) 11:16:32 437.305
POLYITAN 1 02 Mar 11:19:26 11:23:01 25° 266° (W) 11:26:32 437.675
POPSAT HIP 1 02 Mar 11:20:10 11:23:45 25° 266° (W) 11:27:16 437.405
SO-50 02 Mar 11:20:40 11:25:22 43° 243° (WSW) 11:29:59 436.795
CINEMA 3 02 Mar 11:26:00 11:26:22 10° 298° (WNW) 11:26:31 145.822/145.860
DELFI C3 02 Mar 11:29:56 11:31:58 13° 295° (WNW) 11:33:51 145.870
DANDE 02 Mar 11:35:20 11:38:00 53° 262° (W) 11:40:32 436.750
NANOSAT C BR1 02 Mar 11:45:03 11:47:24 14° 270° (W) 11:49:34 145.865
AISAT 02 Mar 12:08:01 12:11:35 24° 293° (WNW) 12:15:03 437.250
DX 1 02 Mar 12:08:36 12:09:50 11° 299° (WNW) 12:10:50 434.975-435.025
CUSAT 1 02 Mar 12:09:03 12:09:53 11° 268° (W) 12:10:37 437.405
CUBEBUG 1 02 Mar 12:12:22 12:16:37 45° 288° (WNW) 12:20:46 437.445
ISS 02 Mar 12:14:51 12:16:51 15° 356° (N) 12:18:51 145.825
VELOX 1 02 Mar 12:18:00 12:21:15 20° 294° (WNW) 12:24:23 145.980
ESTCUBE 1 02 Mar 12:31:32 12:35:28 28° 292° (WNW) 12:39:18 437.505/2401.250
ITAMSAT 1 02 Mar 12:36:44 12:40:38 22° 64° (ENE) 12:44:42 435.822/435.867
Oscar 19 02 Mar 12:37:53 12:42:57 62° 73° (ENE) 12:48:02 437.125/150
AO-7 02 Mar 12:43:26 12:44:07 10° 41° (NE) 12:45:19 29.400- 29.500
